Location: Newark
(45.6439°N, 0.5436°E)
Time: 09:38:55
(UTC+00:00)

N. Korean satellite - Pass Details

Date: 30 November 2019
Orbit: 455 x 506 km, 97.2° (Epoch: 10 December)

Event Time Altitude Azimuth Distance (km) Brightness Sun altitude
Rises 06:07:48 0° 9° (N) 2,591 10.2 -11.7°
Reaches altitude 10° 06:09:55 10° 6° (N) 1,695 9.2 -11.3°
Maximum altitude 06:13:31 62° 286° (WNW) 555 6.5 -10.7°
Drops below altitude 10° 06:17:02 10° 205° (SSW) 1,652 9.2 -10.2°
Sets 06:19:04 0° 202° (SSW) 2,516 10.2 -9.8°
